Вернуться в каталог

SL-8 DEB

АктивенLEO
NORAD 21959·DEBRIS·🇷🇺 Russia

Запущен Feb 12, 1991 с Plesetsk Cosmodrome

Loading…

Ближайшие Пролёты (ближайшие 24 часа)

TLE

СвежийSource: Space-Track

Эпоха: Sep 14, 2026, 10:51 UTC

1 21959U 91009CH  26257.45268786 -.00000010  00000-0  49241-4 0  9999
2 21959  73.9667  59.7151 0129814 327.0747  60.8964 12.18983391579299

Отслеживайте SL-8 DEB в реальном времени с AllMySat

Download on the App Store